Time,TemperatureF,DewpointF,PressureIn,WindDirection,WindDirectionDegrees,WindSpeedMPH,WindSpeedGustMPH,Humidity,HourlyPrecipIn,Conditions,Clouds,dailyrainin,SoftwareType,DateUTC
2013-01-19 00:13:00,14.5,12.4,30.18,NW,315,0.0,-999.0,91,-99.99,,,0.00,Acu-Link.com,2013-01-19 05:13:00,
2013-01-19 00:28:00,14.4,12.8,30.19,NW,315,0.0,-999.0,93,-99.99,,,0.00,Acu-Link.com,2013-01-19 05:28:00,
2013-01-19 00:43:00,14.2,12.3,30.18,SSW,202,0.0,-999.0,92,-99.99,,,0.00,Acu-Link.com,2013-01-19 05:43:00,
2013-01-19 00:58:00,13.8,11.9,30.18,WSW,247,0.0,-999.0,92,-99.99,,,0.00,Acu-Link.com,2013-01-19 05:58:00,
2013-01-19 01:13:00,14.0,12.6,30.18,West,270,0.0,-999.0,94,-99.99,,,0.00,Acu-Link.com,2013-01-19 06:13:00,
2013-01-19 01:28:00,14.7,13.5,30.17,SSE,157,0.0,-999.0,95,-99.99,,,0.00,Acu-Link.com,2013-01-19 06:28:00,
2013-01-19 01:43:00,15.3,14.4,30.18,NNE,22,1.1,-999.0,96,-99.99,,,0.00,Acu-Link.com,2013-01-19 06:43:00,
2013-01-19 01:58:00,16.3,15.4,30.17,WNW,292,0.0,-999.0,96,-99.99,,,0.00,Acu-Link.com,2013-01-19 06:58:00,
2013-01-19 02:14:00,16.5,15.6,30.17,NE,45,0.0,-999.0,96,-99.99,,,0.00,Acu-Link.com,2013-01-19 07:14:00,
2013-01-19 02:29:00,16.9,15.5,30.17,NW,315,0.0,-999.0,94,-99.99,,,0.00,Acu-Link.com,2013-01-19 07:29:00,
2013-01-19 02:44:00,17.2,15.5,30.16,South,180,0.0,-999.0,93,-99.99,,,0.00,Acu-Link.com,2013-01-19 07:44:00,
2013-01-19 02:59:00,16.9,15.2,30.15,NNE,22,0.0,-999.0,93,-99.99,,,0.00,Acu-Link.com,2013-01-19 07:59:00,
2013-01-19 03:14:00,17.6,15.9,30.14,ESE,112,0.0,-999.0,93,-99.99,,,0.00,Acu-Link.com,2013-01-19 08:14:00,
2013-01-19 03:29:00,17.4,15.5,30.14,ESE,112,0.0,-999.0,92,-99.99,,,0.00,Acu-Link.com,2013-01-19 08:29:00,
2013-01-19 03:45:00,17.1,15.2,30.14,WNW,292,0.0,-999.0,92,-99.99,,,0.00,Acu-Link.com,2013-01-19 08:45:00,
2013-01-19 04:00:00,16.5,14.6,30.13,NW,315,0.0,-999.0,92,-99.99,,,0.00,Acu-Link.com,2013-01-19 09:00:00,
2013-01-19 04:35:00,16.2,14.0,30.13,West,270,0.0,-999.0,91,-99.99,,,0.00,Acu-Link.com,2013-01-19 09:35:00,
2013-01-19 04:50:00,15.3,13.4,30.12,WNW,292,0.0,-999.0,92,-99.99,,,0.00,Acu-Link.com,2013-01-19 09:50:00,
2013-01-19 05:05:00,14.9,13.0,30.11,WNW,292,0.0,-999.0,92,-99.99,,,0.00,Acu-Link.com,2013-01-19 10:05:00,
2013-01-19 05:21:00,15.6,14.7,30.11,SSE,157,0.0,-999.0,96,-99.99,,,0.00,Acu-Link.com,2013-01-19 10:21:00,
2013-01-19 05:36:00,15.1,13.7,30.11,WSW,247,0.0,-999.0,94,-99.99,,,0.00,Acu-Link.com,2013-01-19 10:36:00,
2013-01-19 05:51:00,14.9,13.5,30.11,SW,225,0.0,-999.0,94,-99.99,,,0.00,Acu-Link.com,2013-01-19 10:51:00,
2013-01-19 06:06:00,14.7,13.3,30.11,West,270,0.0,-999.0,94,-99.99,,,0.00,Acu-Link.com,2013-01-19 11:06:00,
2013-01-19 07:56:00,15.3,14.4,30.09,SSW,202,0.0,-999.0,96,-99.99,,,0.00,Acu-Link.com,2013-01-19 12:56:00,
2013-01-19 08:12:00,15.3,14.1,30.09,East,90,0.0,-999.0,95,-99.99,,,0.00,Acu-Link.com,2013-01-19 13:12:00,
2013-01-19 08:27:00,17.4,16.5,30.09,NNE,22,0.0,-999.0,96,-99.99,,,0.00,Acu-Link.com,2013-01-19 13:27:00,
2013-01-19 08:42:00,20.1,18.7,30.09,SSW,202,0.0,-999.0,94,-99.99,,,0.00,Acu-Link.com,2013-01-19 13:42:00,
2013-01-19 08:57:00,21.9,18.6,30.08,SSW,202,2.2,-999.0,87,-99.99,,,0.00,Acu-Link.com,2013-01-19 13:57:00,
2013-01-19 09:12:00,23.5,19.4,30.08,East,90,1.1,-999.0,84,-99.99,,,0.00,Acu-Link.com,2013-01-19 14:12:00,
2013-01-19 09:27:00,24.1,19.4,30.09,SSW,202,1.1,-999.0,82,-99.99,,,0.00,Acu-Link.com,2013-01-19 14:27:00,
2013-01-19 09:42:00,27.5,21.3,30.07,ESE,112,1.7,-999.0,77,-99.99,,,0.00,Acu-Link.com,2013-01-19 14:42:00,
2013-01-19 09:57:00,26.8,20.6,30.08,South,180,1.1,-999.0,77,-99.99,,,0.00,Acu-Link.com,2013-01-19 14:57:00,
2013-01-19 10:12:00,27.9,21.0,30.07,NNE,22,3.2,-999.0,75,-99.99,,,0.00,Acu-Link.com,2013-01-19 15:12:00,
2013-01-19 10:28:00,31.1,22.8,30.07,West,270,1.7,-999.0,71,-99.99,,,0.00,Acu-Link.com,2013-01-19 15:28:00,
2013-01-19 10:43:00,32.5,23.8,30.06,ENE,67,2.7,-999.0,70,-99.99,,,0.00,Acu-Link.com,2013-01-19 15:43:00,
2013-01-19 10:58:00,34.7,25.2,30.05,NE,45,2.7,-999.0,68,-99.99,,,0.00,Acu-Link.com,2013-01-19 15:58:00,
2013-01-19 11:13:00,35.1,25.6,30.03,NE,45,1.1,-999.0,68,-99.99,,,0.00,Acu-Link.com,2013-01-19 16:13:00,
2013-01-19 11:28:00,36.7,26.1,30.01,South,180,0.0,-999.0,65,-99.99,,,0.00,Acu-Link.com,2013-01-19 16:28:00,
2013-01-19 11:43:00,38.1,28.1,30.00,NNE,22,2.2,-999.0,67,-99.99,,,0.00,Acu-Link.com,2013-01-19 16:43:00,
2013-01-19 11:58:00,39.9,28.7,29.98,South,180,1.7,-999.0,64,-99.99,,,0.01,Acu-Link.com,2013-01-19 16:58:00,
2013-01-19 12:13:00,40.3,28.7,29.97,South,180,2.7,-999.0,63,-99.99,,,0.02,Acu-Link.com,2013-01-19 17:13:00,
2013-01-19 12:28:00,42.3,29.8,29.95,NNE,22,2.7,-999.0,61,-99.99,,,0.03,Acu-Link.com,2013-01-19 17:28:00,
2013-01-19 12:44:00,41.2,29.2,29.94,NE,45,3.7,-999.0,62,-99.99,,,0.04,Acu-Link.com,2013-01-19 17:44:00,
2013-01-19 12:59:00,43.2,30.7,29.93,East,90,1.7,-999.0,61,-99.99,,,0.05,Acu-Link.com,2013-01-19 17:59:00,
2013-01-19 13:14:00,45.0,31.5,29.92,NE,45,2.2,-999.0,59,-99.99,,,0.07,Acu-Link.com,2013-01-19 18:14:00,
2013-01-19 13:59:00,46.4,31.1,29.89,NE,45,2.7,-999.0,55,-99.99,,,0.09,Acu-Link.com,2013-01-19 18:59:00,
2013-01-19 14:44:00,49.1,30.8,29.86,SE,135,1.7,-999.0,49,-99.99,,,0.12,Acu-Link.com,2013-01-19 19:44:00,
2013-01-19 14:59:00,50.4,30.9,29.86,West,270,1.7,-999.0,47,-99.99,,,0.12,Acu-Link.com,2013-01-19 19:59:00,
2013-01-19 15:15:00,53.1,30.6,29.85,South,180,2.7,-999.0,42,-99.99,,,0.12,Acu-Link.com,2013-01-19 20:15:00,
2013-01-19 15:30:00,52.9,29.8,29.84,SSE,157,1.7,-999.0,41,-99.99,,,0.13,Acu-Link.com,2013-01-19 20:30:00,
2013-01-19 16:00:00,51.3,29.0,29.83,West,270,4.2,-999.0,42,-99.99,,,0.14,Acu-Link.com,2013-01-19 21:00:00,
2013-01-19 16:15:00,50.0,29.0,29.82,South,180,1.1,-999.0,44,-99.99,,,0.14,Acu-Link.com,2013-01-19 21:15:00,
2013-01-19 17:00:00,43.2,30.7,29.82,NW,315,0.0,-999.0,61,-99.99,,,0.14,Acu-Link.com,2013-01-19 22:00:00,
2013-01-19 17:15:00,40.6,31.2,29.82,ESE,112,0.0,-999.0,69,-99.99,,,0.14,Acu-Link.com,2013-01-19 22:15:00,
2013-01-19 17:31:00,38.3,31.1,29.81,WNW,292,1.7,-999.0,75,-99.99,,,0.14,Acu-Link.com,2013-01-19 22:31:00,
2013-01-19 18:46:00,34.2,29.9,29.80,WSW,247,0.0,-999.0,84,-99.99,,,0.14,Acu-Link.com,2013-01-19 23:46:00,
2013-01-19 19:16:00,34.3,30.0,29.80,WNW,292,0.0,-999.0,84,-99.99,,,0.14,Acu-Link.com,2013-01-20 00:16:00,
2013-01-19 19:31:00,33.8,29.8,29.79,ENE,67,1.7,-999.0,85,-99.99,,,0.14,Acu-Link.com,2013-01-20 00:31:00,
2013-01-19 19:47:00,33.1,29.7,29.79,East,90,0.0,-999.0,87,-99.99,,,0.14,Acu-Link.com,2013-01-20 00:47:00,
2013-01-19 20:02:00,32.4,29.3,29.77,ENE,67,0.0,-999.0,88,-99.99,,,0.14,Acu-Link.com,2013-01-20 01:02:00,
2013-01-19 20:17:00,31.5,28.9,29.77,WSW,247,0.0,-999.0,90,-99.99,,,0.14,Acu-Link.com,2013-01-20 01:17:00,
2013-01-19 20:47:00,31.1,29.1,29.74,ENE,67,0.0,-999.0,92,-99.99,,,0.14,Acu-Link.com,2013-01-20 01:47:00,
2013-01-19 21:32:00,32.4,30.6,29.72,NNW,337,1.7,-999.0,93,-99.99,,,0.14,Acu-Link.com,2013-01-20 02:32:00,
2013-01-19 21:48:00,32.7,30.6,29.72,NW,315,0.0,-999.0,92,-99.99,,,0.14,Acu-Link.com,2013-01-20 02:48:00,
2013-01-19 22:18:00,32.5,30.4,29.71,WNW,292,0.0,-999.0,92,-99.99,,,0.14,Acu-Link.com,2013-01-20 03:18:00,
2013-01-19 22:48:00,32.7,30.9,29.70,East,90,0.0,-999.0,93,-99.99,,,0.14,Acu-Link.com,2013-01-20 03:48:00,
2013-01-19 23:03:00,32.7,30.9,29.69,East,90,0.0,-999.0,93,-99.99,,,0.14,Acu-Link.com,2013-01-20 04:03:00,
2013-01-19 23:18:00,32.5,30.7,29.68,ESE,112,1.1,-999.0,93,-99.99,,,0.14,Acu-Link.com,2013-01-20 04:18:00,
2013-01-19 23:33:00,32.2,30.7,29.68,ESE,112,0.0,-999.0,94,-99.99,,,0.14,Acu-Link.com,2013-01-20 04:33:00,
2013-01-19 23:49:00,30.9,29.4,29.67,North,0,0.0,-999.0,94,-99.99,,,0.14,Acu-Link.com,2013-01-20 04:49:00,